User: anonymous   Login
Location: Unspecified
(0.0000°N, 0.0000°E)
Time: 03:41:57
(UTC+00:00)
Language:

AO-85 - Orbit

View from above orbital plane
View from above orbital plane
View from above satellite
View from above satellite

Ground track
Ground track

The orbit data is extracted from the following two-line orbital elements,

1 40967U 15058D   19010.42426436  .00000074  00000-0  25725-4 0 05652
2 40967 064.7771 282.0257 0212731 251.5349 106.2530 14.75854594084237
Epoch (UTC): 10 January 2019 10:10:56
Eccentricity: 0.0212731
inclination: 64.7771°
perigee height: 493 km
apogee height: 792 km
right ascension of ascending node: 282.0257°
argument of perigee: 251.5349°
revolutions per day: 14.75854594
mean anomaly at epoch: 106.2530°
orbit number at epoch: 8423

The dashed part of the orbit path shows where the satellite is in the earth's shadow,  

DLR